• en France
  • Liste des pays
  • À 7 jours
  • Température de l'eau
  • Carte satellitaire
  • Carte météo
  • Widgets météo
  • user-avatar
    Se connecter

    Météo par heure à Brest

    Ce jour, 17 Janvier, Mercredi

    Heure Température Précipitation Vent Pression Humidité
    00:00 -9°C° 0,4 mm 7 m/s 734 mmHg 78%
    01:00 -9°C° 0,4 mm 6 m/s 733 mmHg 84%
    02:00 -8°C° 0 mm 5 m/s 733 mmHg 86%
    03:00 -8°C° 0,5 mm 5 m/s 732 mmHg 88%
    04:00 -8°C° 0,5 mm 5 m/s 731 mmHg 90%
    05:00 -8°C° 0,5 mm 5 m/s 731 mmHg 92%
    06:00 -7°C° 0,4 mm 5 m/s 731 mmHg 92%
    07:00 -6°C° 0,4 mm 5 m/s 730 mmHg 93%
    08:00 -4°C° 0,4 mm 4 m/s 730 mmHg 93%
    09:00 -5°C° 0,2 mm 5 m/s 730 mmHg 91%
    10:00 -4°C° 0,2 mm 5 m/s 730 mmHg 89%
    11:00 -3°C° 0,2 mm 6 m/s 730 mmHg 87%
    12:00 -3°C° 0,2 mm 6 m/s 730 mmHg 87%
    13:00 -3°C° 0,2 mm 6 m/s 730 mmHg 86%
    14:00 -3°C° 0,2 mm 6 m/s 730 mmHg 85%
    15:00 -3°C° 0,1 mm 6 m/s 730 mmHg 85%
    16:00 -2°C° 0,1 mm 5 m/s 731 mmHg 86%
    17:00 -2°C° 0,1 mm 5 m/s 731 mmHg 86%
    18:00 -2°C° 0,1 mm 5 m/s 731 mmHg 87%
    19:00 -4°C° 0,1 mm 5 m/s 732 mmHg 87%
    20:00 -4°C° 0,1 mm 5 m/s 732 mmHg 88%
    21:00 -4°C° 0 mm 5 m/s 732 mmHg 89%
    22:00 -3°C° 0 mm 4 m/s 733 mmHg 89%
    23:00 -4°C° 0 mm 4 m/s 733 mmHg 90%

    Demain, 18 Janvier, Jeudi

    Heure Température Précipitation Vent Pression Humidité
    00:00 -4°C° 0 mm 4 m/s 733 mmHg 91%
    01:00 -5°C° 0 mm 3 m/s 734 mmHg 92%
    02:00 -5°C° 0 mm 3 m/s 734 mmHg 93%
    03:00 -5°C° 0 mm 3 m/s 735 mmHg 93%
    04:00 -5°C° 0 mm 3 m/s 735 mmHg 94%
    05:00 -6°C° 0 mm 3 m/s 736 mmHg 95%
    06:00 -6°C° 0 mm 3 m/s 736 mmHg 95%
    07:00 -5°C° 0 mm 3 m/s 737 mmHg 95%
    08:00 -5°C° 0 mm 3 m/s 737 mmHg 96%
    09:00 -4°C° 0 mm 4 m/s 738 mmHg 94%
    10:00 -4°C° 0 mm 4 m/s 738 mmHg 92%
    11:00 -4°C° 0 mm 5 m/s 739 mmHg 90%
    12:00 -2°C° 0 mm 5 m/s 739 mmHg 87%
    13:00 -2°C° 0 mm 5 m/s 739 mmHg 84%
    14:00 -2°C° 0 mm 4 m/s 739 mmHg 82%
    15:00 -2°C° 0 mm 4 m/s 739 mmHg 83%
    16:00 -2°C° 0 mm 3 m/s 739 mmHg 85%
    17:00 -2°C° 0 mm 2 m/s 739 mmHg 87%
    18:00 -2°C° 0 mm 3 m/s 738 mmHg 87%
    19:00 -3°C° 0 mm 4 m/s 737 mmHg 86%
    20:00 -3°C° 0 mm 4 m/s 737 mmHg 86%
    21:00 -4°C° 0,1 mm 5 m/s 736 mmHg 85%
    22:00 -4°C° 0,1 mm 6 m/s 735 mmHg 84%
    23:00 -5°C° 0,1 mm 8 m/s 734 mmHg 83%

    Après-demain, 19 Janvier, Vendredi

    Heure Température Précipitation Vent Pression Humidité
    00:00 -5°C° 0,9 mm 8 m/s 732 mmHg 84%
    01:00 -4°C° 0,9 mm 8 m/s 731 mmHg 86%
    02:00 -2°C° 0,9 mm 8 m/s 730 mmHg 88%
    03:00 -2°C° 0,3 mm 7 m/s 729 mmHg 87%
    04:00 -2°C° 0,3 mm 7 m/s 729 mmHg 85%
    05:00 -1°C° 0,3 mm 7 m/s 728 mmHg 83%
    06:00 -2°C° 0,3 mm 7 m/s 728 mmHg 84%
    07:00 -2°C° 0,3 mm 7 m/s 728 mmHg 84%
    08:00 -2°C° 0,3 mm 7 m/s 728 mmHg 84%
    09:00 -2°C° 0,3 mm 7 m/s 729 mmHg 85%
    10:00 -2°C° 0,3 mm 7 m/s 729 mmHg 86%
    11:00 -2°C° 0,3 mm 7 m/s 730 mmHg 87%
    12:00 -2°C° 0,2 mm 8 m/s 730 mmHg 87%
    13:00 -3°C° 0,2 mm 9 m/s 731 mmHg 86%
    14:00 -4°C° 0,2 mm 9 m/s 732 mmHg 86%
    15:00 -4°C° 0,1 mm 9 m/s 733 mmHg 85%
    16:00 -4°C° 0,1 mm 9 m/s 735 mmHg 84%
    17:00 -4°C° 0,1 mm 8 m/s 736 mmHg 83%
    18:00 -5°C° 0,1 mm 8 m/s 737 mmHg 84%
    19:00 -4°C° 0,1 mm 7 m/s 737 mmHg 84%
    20:00 -4°C° 0,1 mm 7 m/s 738 mmHg 85%
    21:00 -4°C° 0 mm 7 m/s 739 mmHg 86%
    22:00 -4°C° 0 mm 6 m/s 740 mmHg 87%
    23:00 -4°C° 0 mm 6 m/s 740 mmHg 87%

    20 Janvier, Samedi

    Heure Température Précipitation Vent Pression Humidité
    00:00 -5°C° 0 mm 6 m/s 741 mmHg 88%
    01:00 -5°C° 0 mm 5 m/s 741 mmHg 88%
    02:00 -5°C° 0 mm 5 m/s 741 mmHg 88%
    03:00 -4°C° 0 mm 4 m/s 741 mmHg 89%
    04:00 -5°C° 0 mm 4 m/s 741 mmHg 90%
    05:00 -5°C° 0 mm 3 m/s 741 mmHg 91%
    06:00 -5°C° 0 mm 3 m/s 742 mmHg 92%
    07:00 -6°C° 0 mm 3 m/s 742 mmHg 93%
    08:00 -5°C° 0 mm 2 m/s 742 mmHg 94%
    09:00 -4°C° 0 mm 2 m/s 742 mmHg 94%
    10:00 -4°C° 0 mm 3 m/s 742 mmHg 93%
    11:00 -2°C° 0 mm 3 m/s 742 mmHg 93%
    12:00 -2°C° 0,1 mm 3 m/s 742 mmHg 92%
    13:00 -1°C° 0,1 mm 3 m/s 742 mmHg 92%
    14:00 -1°C° 0,1 mm 3 m/s 742 mmHg 92%
    15:00 -1°C° 0,1 mm 3 m/s 742 mmHg 92%
    16:00 -1°C° 0,1 mm 3 m/s 742 mmHg 92%
    17:00 -2°C° 0,1 mm 2 m/s 742 mmHg 92%
    18:00 -2°C° 0 mm 2 m/s 742 mmHg 93%
    19:00 -3°C° 0 mm 2 m/s 742 mmHg 93%
    20:00 -3°C° 0 mm 2 m/s 742 mmHg 93%
    21:00 -3°C° 0,1 mm 2 m/s 742 mmHg 94%
    22:00 -3°C° 0,1 mm 2 m/s 742 mmHg 94%
    23:00 -1°C° 0,1 mm 1 m/s 743 mmHg 95%

    21 Janvier, Dimanche

    Heure Température Précipitation Vent Pression Humidité
    00:00 -1°C° 0,1 mm 1 m/s 743 mmHg 95%
    01:00 -1°C° 0,1 mm 1 m/s 743 mmHg 96%
    02:00 -1°C° 0,1 mm 1 m/s 743 mmHg 96%
    03:00 -2°C° 0,1 mm 1 m/s 743 mmHg 96%
    04:00 -2°C° 0,1 mm 1 m/s 743 mmHg 96%
    05:00 -4°C° 0,1 mm 2 m/s 743 mmHg 96%
    06:00 -4°C° 0,1 mm 2 m/s 744 mmHg 95%
    07:00 -5°C° 0,1 mm 2 m/s 744 mmHg 95%
    08:00 -5°C° 0,1 mm 2 m/s 745 mmHg 95%
    09:00 -4°C° 0 mm 2 m/s 745 mmHg 95%
    10:00 -5°C° 0 mm 3 m/s 746 mmHg 94%
    11:00 -4°C° 0 mm 3 m/s 746 mmHg 93%
    12:00 -4°C° 0 mm 3 m/s 746 mmHg 92%
    13:00 -4°C° 0 mm 3 m/s 746 mmHg 90%
    14:00 -4°C° 0 mm 3 m/s 747 mmHg 89%
    15:00 -4°C° 0 mm 3 m/s 747 mmHg 90%
    16:00 -5°C° 0 mm 3 m/s 747 mmHg 91%
    17:00 -4°C° 0 mm 2 m/s 748 mmHg 92%
    18:00 -4°C° 0,1 mm 2 m/s 748 mmHg 92%
    19:00 -5°C° 0 mm 3 m/s 749 mmHg 93%
    20:00 -5°C° 0,1 mm 3 m/s 749 mmHg 93%
    21:00 -5°C° 0 mm 3 m/s 749 mmHg 94%
    22:00 -5°C° 0 mm 3 m/s 749 mmHg 94%
    23:00 -4°C° 0 mm 2 m/s 750 mmHg 94%

    22 Janvier, Lundi

    Heure Température Précipitation Vent Pression Humidité
    00:00 -4°C° 0 mm 2 m/s 750 mmHg 95%
    01:00 -5°C° 0 mm 3 m/s 750 mmHg 95%
    02:00 -5°C° 0 mm 3 m/s 750 mmHg 95%
    03:00 -5°C° 0 mm 3 m/s 750 mmHg 95%
    04:00 -5°C° 0 mm 2 m/s 750 mmHg 94%
    05:00 -5°C° 0 mm 2 m/s 750 mmHg 94%
    06:00 -5°C° 0 mm 2 m/s 750 mmHg 94%
    07:00 -6°C° 0 mm 3 m/s 751 mmHg 95%
    08:00 -6°C° 0 mm 3 m/s 751 mmHg 95%
    09:00 -6°C° 0 mm 3 m/s 751 mmHg 94%
    10:00 -6°C° 0 mm 3 m/s 751 mmHg 92%
    11:00 -5°C° 0 mm 3 m/s 752 mmHg 91%
    12:00 -5°C° 0 mm 3 m/s 752 mmHg 89%
    13:00 -4°C° 0 mm 3 m/s 752 mmHg 86%
    14:00 -4°C° 0 mm 3 m/s 752 mmHg 84%
    15:00 -3°C° 0 mm 2 m/s 752 mmHg 85%
    16:00 -2°C° 0 mm 1 m/s 752 mmHg 87%
    17:00 -3°C° 0 mm 1 m/s 753 mmHg 88%
    18:00 -3°C° 0 mm 1 m/s 753 mmHg 88%
    19:00 -3°C° 0 mm 1 m/s 753 mmHg 88%
    20:00 -4°C° 0 mm 0 m/s 754 mmHg 88%
    21:00 -4°C° 0 mm 0 m/s 754 mmHg 88%
    22:00 -4°C° 0 mm 0 m/s 754 mmHg 89%
    23:00 -4°C° 0 mm 0 m/s 755 mmHg 89%
    Voir plus